This is the latest recevied weather packets stored in our database for station/object WB6ANP. If no packets are shown the sender has not sent any weather packets the latest 10 day(s).
| Time | Temp. | Humidity | Pressure | Rain* | Wind** | Luminosity | Snow |
|---|---|---|---|---|---|---|---|
| 1777910239 | 22.22° C | 62% | 1012 hPa | 0 mm | - | 712 W/m² | - |
| 1777909936 | 22.22° C | 63% | 1011.8 hPa | 0 mm | - | 729 W/m² | - |
| 1777909632 | 21.67° C | 64% | 1012 hPa | 0 mm | - | 721 W/m² | - |
| 1777909330 | 21.67° C | 64% | 1011.8 hPa | 0 mm | - | 727 W/m² | - |
| 1777909028 | 21.67° C | 64% | 1011.7 hPa | 0 mm | - | 671 W/m² | - |
| 1777908725 | 21.11° C | 65% | 1011.6 hPa | 0 mm | - | 666 W/m² | - |
| 1777908422 | 21.11° C | 66% | 1011.8 hPa | 0 mm | - | 542 W/m² | - |
| 1777908119 | 21.11° C | 64% | 1011.8 hPa | 0 mm | - | 601 W/m² | - |
| 1777907815 | 21.11° C | 65% | 1012.1 hPa | 0 mm | - | 687 W/m² | - |
| 1777907510 | 20.56° C | 66% | 1011.8 hPa | 0 mm | - | 639 W/m² | - |
| 1777907207 | 20.56° C | 66% | 1012.2 hPa | 0 mm | - | 650 W/m² | - |
| 1777906904 | 20.56° C | 66% | 1012.2 hPa | 0 mm | - | 409 W/m² | - |
| 1777906601 | 20° C | 67% | 1012.1 hPa | 0 mm | - | 633 W/m² | - |
| 1777906297 | 20° C | 67% | 1012 hPa | 0 mm | - | 569 W/m² | - |
| 1777905994 | 20° C | 67% | 1012.2 hPa | 0 mm | - | 528 W/m² | - |
| 1777905690 | 20° C | 68% | 1012.2 hPa | 0 mm | - | 510 W/m² | - |
| 1777905387 | 20° C | 67% | 1012.4 hPa | 0 mm | - | 408 W/m² | - |
| 1777905085 | 19.44° C | 71% | 1012.3 hPa | 0 mm | - | 554 W/m² | - |
| 1777904782 | 19.44° C | 70% | 1012.3 hPa | 0 mm | - | 405 W/m² | - |
| 1777904479 | 18.89° C | 71% | 1012.4 hPa | 0 mm | - | 484 W/m² | - |
| 1777904175 | 18.89° C | 72% | 1012.2 hPa | 0 mm | - | 450 W/m² | - |
| 1777903873 | 18.89° C | 71% | 1012.4 hPa | 0 mm | - | 425 W/m² | - |
| 1777903569 | 18.33° C | 73% | 1012.2 hPa | 0 mm | - | 423 W/m² | - |
| 1777903265 | 17.78° C | 73% | 1012.2 hPa | 0 mm | - | 370 W/m² | - |
| 1777902962 | 17.78° C | 73% | 1012.3 hPa | 0 mm | - | 313 W/m² | - |
* Rain latest hour (hover to see other rain measurements)
** Current wind speed in m/s (hover to see current wind gust speed)